Location: ??????????
(54.4061°N, 22.6114°E)
Time: 12:14:04
(UTC+00:00)

Cosmos 1328 - Pass Details

Date: 23 October 2019
Orbit: 532 x 553 km, 82.5° (Epoch: 20 November)

Event Time Altitude Azimuth Distance (km) Brightness Sun altitude
Rises 15:45:18 0° 349° (N) 2,716 7.4 -5.2°
Reaches altitude 10° 15:47:29 10° 351° (N) 1,815 6.4 -5.5°
Maximum altitude 15:51:28 74° 77° (ENE) 565 3.7 -6.1°
Drops below altitude 10° 15:55:24 10° 163° (SSE) 1,789 6.4 -6.6°
Sets 15:57:32 0° 166° (SSE) 2,672 7.3 -6.9°
